�������C�����ː����j�^�v���󋵏��
Date,Time,Cs137(Bq/L),Cs134(Bq/L),�S��(Bq/L)
2017/03/25,00:00,0.76,0.069,ND
2017/03/25,00:10,0.76,0.077,ND
2017/03/25,00:20,0.87,0.050,9.2
2017/03/25,00:30,0.86,0.052,ND
2017/03/25,00:40,0.86,0.051,9.5
2017/03/25,00:50,0.75,0.088,ND
2017/03/25,01:00,0.76,0.085,ND
2017/03/25,01:10,0.76,0.086,ND
2017/03/25,01:20,0.75,0.085,ND
2017/03/25,01:30,0.90,0.041,ND
2017/03/25,01:40,0.91,0.036,ND
2017/03/25,01:50,0.92,0.031,8.9
2017/03/25,02:00,0.90,0.030,ND
2017/03/25,02:10,0.90,0.027,ND
2017/03/25,02:20,0.81,0.061,ND
2017/03/25,02:30,0.80,0.067,ND
2017/03/25,02:40,0.80,0.066,11
2017/03/25,02:50,0.82,0.070,10
2017/03/25,03:00,0.81,0.082,12
2017/03/25,03:10,0.81,0.097,12
2017/03/25,03:20,0.95,0.056,15
2017/03/25,03:30,0.96,0.052,13
2017/03/25,03:40,0.96,0.058,13
2017/03/25,03:50,0.84,0.091,13
2017/03/25,04:00,0.86,0.086,16
2017/03/25,04:10,0.97,0.041,14
2017/03/25,04:20,0.84,0.072,9.5
2017/03/25,04:30,0.85,0.067,12
2017/03/25,04:40,0.85,0.062,9.2
2017/03/25,04:50,0.96,0.032,9.7
2017/03/25,05:00,0.83,0.061,ND
2017/03/25,05:10,0.95,0.031,11
2017/03/25,05:20,0.94,0.030,13
2017/03/25,05:30,0.92,0.029,11
2017/03/25,05:40,0.90,0.045,13
2017/03/25,05:50,0.91,0.051,9.9
2017/03/25,06:00,0.94,0.043,9.9
2017/03/25,06:10,0.83,0.081,ND
2017/03/25,06:20,0.83,0.094,ND
2017/03/25,06:30,0.85,0.10,ND
2017/03/25,06:40,0.84,0.095,ND
2017/03/25,06:50,0.82,0.089,ND
2017/03/25,07:00,0.80,0.095,ND
2017/03/25,07:10,0.90,0.060,ND
2017/03/25,07:20,0.81,0.086,ND
2017/03/25,07:30,0.92,0.052,9.5
2017/03/25,07:40,0.91,0.055,11
2017/03/25,07:50,0.90,0.056,13
2017/03/25,08:00,0.81,0.078,8.9
2017/03/25,08:10,0.90,0.046,9.9
2017/03/25,08:20,0.79,0.079,ND
2017/03/25,08:30,0.79,0.082,ND
2017/03/25,08:40,0.78,0.081,ND
2017/03/25,08:50,0.78,0.074,ND
2017/03/25,09:00,0.77,0.074,ND
2017/03/25,09:10,0.78,0.071,ND
2017/03/25,09:20,0.76,0.074,ND
2017/03/25,09:30,0.73,0.073,ND
2017/03/25,09:40,0.74,0.076,ND
2017/03/25,09:50,0.77,0.080,ND
2017/03/25,10:00,0.75,0.085,9.5
2017/03/25,10:10,0.76,0.089,ND
2017/03/25,10:20,0.78,0.084,9.5
2017/03/25,10:30,0.78,0.089,9.0
2017/03/25,10:40,0.79,0.077,ND
2017/03/25,10:50,0.76,0.077,ND
2017/03/25,11:00,0.76,0.073,ND
2017/03/25,11:10,0.77,0.070,ND
2017/03/25,11:20,0.76,0.074,ND
2017/03/25,11:30,0.74,0.068,ND
2017/03/25,11:40,0.72,0.069,ND
2017/03/25,11:50,0.71,0.071,12
2017/03/25,12:00,0.72,0.071,12
2017/03/25,12:10,0.67,0.074,13
2017/03/25,12:20,0.64,0.077,13
2017/03/25,12:30,0.64,0.071,14
2017/03/25,12:40,0.66,0.070,13
2017/03/25,12:50,0.68,0.063,ND
2017/03/25,13:00,0.76,0.028,ND
2017/03/25,13:10,0.81,ND,ND
2017/03/25,13:20,0.80,0.025,ND
2017/03/25,13:30,0.81,0.032,ND
2017/03/25,13:40,0.70,0.063,ND
2017/03/25,13:50,0.69,0.073,ND
2017/03/25,14:00,0.68,0.072,ND
2017/03/25,14:10,0.69,0.072,ND
2017/03/25,14:20,0.69,0.057,ND
2017/03/25,14:30,0.70,0.047,ND
2017/03/25,14:40,0.70,0.041,ND
2017/03/25,14:50,0.72,0.035,ND
2017/03/25,15:00,0.84,ND,ND
2017/03/25,15:10,0.82,ND,ND
2017/03/25,15:20,0.84,ND,ND
2017/03/25,15:30,0.85,ND,ND
2017/03/25,15:40,0.73,0.064,ND
2017/03/25,15:50,0.71,0.070,ND
2017/03/25,16:00,0.74,0.066,ND
2017/03/25,16:10,0.73,0.074,ND
2017/03/25,16:20,0.75,0.071,ND
2017/03/25,16:30,0.76,0.076,9.3
2017/03/25,16:40,0.77,0.076,ND
2017/03/25,16:50,0.80,0.066,ND
2017/03/25,17:00,0.77,0.071,ND
2017/03/25,17:10,0.87,0.041,ND
2017/03/25,17:20,0.85,0.056,ND
2017/03/25,17:30,0.73,0.089,ND
2017/03/25,17:40,0.76,0.084,ND
2017/03/25,17:50,0.76,0.096,ND
2017/03/25,18:00,0.78,0.094,ND
2017/03/25,18:10,0.80,0.082,ND
2017/03/25,18:20,0.81,0.082,ND
2017/03/25,18:30,0.81,0.083,ND
2017/03/25,18:40,0.81,0.085,ND
2017/03/25,18:50,0.79,0.086,ND
2017/03/25,19:00,0.81,0.076,ND
2017/03/25,19:10,0.81,0.086,ND
2017/03/25,19:20,0.78,0.085,ND
2017/03/25,19:30,0.82,0.076,ND
2017/03/25,19:40,0.80,0.072,ND
2017/03/25,19:50,0.78,0.065,ND
2017/03/25,20:00,0.75,0.067,ND
2017/03/25,20:10,0.76,0.059,ND
2017/03/25,20:20,0.76,0.062,ND
2017/03/25,20:30,0.76,0.054,ND
2017/03/25,20:40,0.76,0.053,ND
2017/03/25,20:50,0.77,0.058,9.0
2017/03/25,21:00,0.77,0.056,8.8
2017/03/25,21:10,0.77,0.055,9.0
2017/03/25,21:20,0.77,0.057,11
2017/03/25,21:30,0.74,0.066,10
2017/03/25,21:40,0.72,0.075,9.7
2017/03/25,21:50,0.72,0.079,9.2
2017/03/25,22:00,0.73,0.079,12
2017/03/25,22:10,0.74,0.082,11
2017/03/25,22:20,0.73,0.081,11
2017/03/25,22:30,0.89,0.046,9.7
2017/03/25,22:40,0.79,0.046,ND
2017/03/25,22:50,0.74,0.067,ND
2017/03/25,23:00,0.72,0.069,ND
2017/03/25,23:10,0.71,0.074,ND
2017/03/25,23:20,0.73,0.071,ND
2017/03/25,23:30,0.70,0.071,ND
2017/03/25,23:40,0.71,0.071,ND
2017/03/25,23:50,0.71,0.070,ND
